CST,Max TemperatureF,Mean TemperatureF,Min TemperatureF,Max Dew PointF,MeanDew PointF,Min DewpointF,Max Humidity, Mean Humidity, Min Humidity, Max Sea Level PressureIn, Mean Sea Level PressureIn, Min Sea Level PressureIn, Max VisibilityMiles, Mean VisibilityMiles, Min VisibilityMiles, Max Wind SpeedMPH, Mean Wind SpeedMPH, Max Gust SpeedMPH,PrecipitationIn, CloudCover, Events, WindDirDegrees
2012-11-1,57,44,31,34,28,22,78,59,38,29.93,29.89,29.82,10,10,10,13,8,16,0.00,3,,294
2012-11-2,47,37,27,32,28,25,90,67,44,30.14,30.06,29.93,10,9,2,13,7,,0.00,0,,19
2012-11-3,46,39,32,35,33,29,90,76,61,30.21,30.17,30.12,10,10,10,10,6,,0.00,6,,66
2012-11-4,47,38,29,36,30,26,93,76,53,30.25,30.21,30.17,10,10,7,7,3,,0.00,4,,343
2012-11-5,44,36,27,36,29,24,98,79,57,30.19,30.16,30.11,10,8,0,10,5,,0.00,3,Fog-Snow,79
2012-11-6,42,36,30,41,35,27,96,89,78,30.11,29.96,29.87,10,5,2,10,4,,0.16,8,Rain,177
2012-11-7,44,39,34,41,38,33,96,89,75,30.17,30.05,29.87,10,5,0,9,6,,0.01,8,Fog,331
2012-11-8,49,44,38,38,36,32,89,77,61,30.21,30.14,30.07,10,9,5,16,5,18,0.00,4,,196
2012-11-9,57,46,36,47,42,35,92,81,63,30.09,30.01,29.94,10,8,4,12,7,,0.00,3,,128
2012-11-10,69,60,52,54,51,48,89,71,57,29.97,29.90,29.83,10,10,7,30,13,40,0.03,3,Rain-Thunderstorm,177
2012-11-11,68,52,35,54,48,32,94,76,59,30.00,29.86,29.71,10,9,3,37,21,48,0.48,5,Rain-Snow,209
2012-11-12,36,31,26,32,24,19,89,70,56,30.37,30.18,30.00,10,10,10,29,16,37,0.00,4,,270
2012-11-13,41,32,24,26,23,20,86,69,44,30.52,30.46,30.37,10,10,10,8,5,,0.00,0,,229
2012-11-14,46,38,30,30,28,26,84,71,49,30.50,30.44,30.37,10,10,10,15,7,16,0.00,0,,158
2012-11-15,48,38,29,32,29,26,87,71,47,30.39,30.35,30.31,10,10,7,8,5,,0.00,0,,171
2012-11-16,54,42,29,35,30,26,90,67,44,30.46,30.42,30.36,10,10,4,9,4,,0.00,0,,160
2012-11-17,54,42,30,35,31,26,88,68,42,30.54,30.47,30.41,10,8,4,14,5,,0.00,0,,145
2012-11-18,57,44,30,36,33,28,92,67,39,30.43,30.36,30.30,10,8,4,10,6,,0.00,0,,141
2012-11-19,55,48,40,44,39,34,81,72,54,30.30,30.20,30.10,10,10,7,15,8,,0.00,4,Rain,175
2012-11-20,59,49,39,47,44,38,95,79,61,30.18,30.12,30.08,10,7,0,8,4,,0.03,4,Fog,324
2012-11-21,56,46,36,50,41,36,100,91,64,30.25,30.17,30.09,10,3,0,17,5,,0.00,4,Fog,204
2012-11-22,63,52,39,50,44,33,93,75,53,30.08,29.93,29.81,10,8,2,26,14,36,0.00,3,Rain-Thunderstorm,209
2012-11-23,39,32,25,33,22,16,79,69,57,30.26,30.13,29.97,10,10,10,32,19,43,0.00,5,,290
2012-11-24,34,28,21,24,21,18,88,71,57,30.28,30.17,29.96,10,10,10,13,8,,0.00,5,,249
2012-11-25,43,36,28,28,26,23,80,66,51,30.09,29.93,29.85,10,10,10,14,9,,0.00,2,,275
2012-11-26,34,28,22,26,22,15,85,70,52,30.38,30.25,30.10,10,10,10,12,6,,0.00,3,,349
2012-11-27,32,24,15,18,14,10,79,59,45,30.44,30.34,30.27,10,10,10,9,5,,0.00,2,,243
2012-11-28,45,34,24,27,22,17,80,62,39,30.39,30.32,30.27,10,10,10,12,7,,0.00,1,,232
2012-11-29,51,40,28,35,30,24,85,70,51,30.26,30.15,30.05,10,10,7,13,9,,0.00,0,,170
2012-11-30,54,44,33,35,33,30,93,70,48,30.12,30.07,30.03,10,9,3,12,6,,0.00,1,,111